Location: Gorizia
(45.9500°N, 13.6330°E)
Time: 05:06:32
(UTC+01:00)

ISS - Visible Passes

Search period start: 23 January 2019 00:00
Search period end: 02 February 2019 00:00
Orbit: 404 x 411 km, 51.6° (Epoch: 23 January)

Date Brightness Start Highest point End Pass type
(mag) Time Alt. Az. Time Alt. Az. Time Alt. Az.
23 Jan -3.0 18:38:00 10° SSW 18:41:04 36° SE 18:41:04 36° SE visible
24 Jan -2.2 17:47:16 10° S 17:49:52 22° SE 17:52:03 12° E visible
24 Jan -2.0 19:22:52 10° WSW 19:24:46 31° W 19:24:46 31° W visible
25 Jan -3.9 18:31:29 10° WSW 18:34:47 79° SSE 18:35:40 45° ENE visible
26 Jan -3.3 17:40:17 10° SW 17:43:27 46° SE 17:46:30 11° ENE visible
26 Jan -2.2 19:16:54 10° W 19:19:13 33° NW 19:19:13 33° NW visible
27 Jan -3.4 18:25:19 10° WSW 18:28:34 56° NNW 18:30:00 29° NE visible
27 Jan -0.3 20:02:36 10° WNW 20:02:43 11° WNW 20:02:43 11° WNW visible
28 Jan -3.8 17:33:51 10° WSW 17:37:08 84° NNW 17:40:27 10° ENE visible
28 Jan -2.2 19:10:58 10° WNW 19:13:26 29° NNW 19:13:26 29° NNW visible
29 Jan -2.8 18:19:19 10° W 18:22:26 37° NNW 18:24:08 21° NE visible
29 Jan -0.5 19:56:31 10° WNW 19:56:51 12° NW 19:56:51 12° NW visible
30 Jan -2.3 19:04:58 10° WNW 19:07:31 28° NNW 19:07:31 28° NNW visible
31 Jan -2.5 18:13:20 10° WNW 18:16:18 30° N 18:18:11 17° NE visible
31 Jan -0.8 19:50:14 10° NW 19:50:54 14° NW 19:50:54 14° NW visible
01 Feb -2.6 18:58:45 10° WNW 19:01:34 31° N 19:01:34 31° N visible
